sat.trackr.live / text

‹ back to catalog

STARLINK-5793

NORAD 56038 · 2023-042BE

PAYLOAD ACTIVE UNKNOWN

§ Identity

Operator
Country
US
Launch date
2023-03-24
Launch site
AFETR
Launch vehicle
Mass (kg)
RCS (m²)

Purposes: comms

External: N2YO · Heavens-Above · Gunter

§ Orbital elements

Epoch: 2026-05-24T22:40:13.044288Z

Period
94.27 min
Inclination
43.0021°
Eccentricity
0.0001040
Mean motion
15.27578298 rev/d
Perigee alt
482.3 km
Apogee alt
483.8 km
Semi-major
6,861.2 km
B*
1.7878e-5
RAAN
334.9119°
Arg perigee
263.9870°
Mean anomaly
96.0863°
Rev number
17,469

§ Raw data

STARLINK-57931 56038U 23042BE  26144.94459542  .00000230  00000+0  17878-4 0  99912 56038  43.0021 334.9119 0001040 263.9870  96.0863 15.27578298174697

JSON: /api/v1/satellites/56038 · /tle

For live sub-satellite position, see the globe view (requires WebGL).

§ Visibility from observer

Set your observer location to see the next 7 days of passes ≥ 10°. The values pass through the URL so the page stays shareable.

No JS? Fill the form by hand. The geolocation button needs JavaScript.